Regional Weather Roundup
Issued by NWS

Home | Current Version | Previous Version | Text Only | Print | Product List | Glossary Off
Versions: 1 2 3 4 5 6 7 8 9 10 11 12 13 14 15 16 17 18 19 20 21 22 23 24 25 26 27 28 29 30 31 32 33 34 35 36 37 38 39 40 41 42 43 44 45 46 47 48 49 50

000
ASUS43 KLSX 241310
RWRMO

WEATHER SUMMARY FOR MISSOURI
NATIONAL WEATHER SERVICE SPRINGFIELD MO
800 AM CDT SAT JUN 24 2017

NOTE: "FAIR" INDICATES FEW OR NO CLOUDS BELOW 12,000 FEET WITH NO
       SIGNIFICANT WEATHER AND/OR OBSTRUCTIONS TO VISIBILITY.
       CURRENT SKY AND/OR WEATHER CONDITIONS ARE NOT AVAILABLE FOR
       CHILLICOTHE AND FARMINGTON.

MOZ001>031-035>038-043-044-053-054-241400-
...NORTHERN AND WESTERN MISSOURI...

CITY           SKY/WX    TMP DP  RH WIND       PRES   REMARKS
KANSAS CTY INT SUNNY     64  53  67 N5        30.18R
KANSAS C DTWN  SUNNY     66  53  63 N5        30.17R
LEE`S SUMMIT   SUNNY     65  54  67 N7        30.19R
ST JOSEPH      SUNNY     61  55  81 N3        30.18R
CHILLICOTHE      N/A     65  50  58 NW6       30.16R
KIRKSVILLE     SUNNY     63  54  72 NW7       30.13R

$$
MOZ066>068-077>081-088>096-101>105-241400-
...SOUTHWEST MISSOURI...

CITY           SKY/WX    TMP DP  RH WIND       PRES   REMARKS
SPRINGFIELD    MOSUNNY   66  57  72 N7        30.16R
JOPLIN         MOSUNNY   66  58  75 NE6       30.17R
BRANSON        PTSUNNY   66  57  72 CALM      30.19R

$$
MOZ032>034-039>042-045>050-055>058-069>072-241400-
...CENTRAL MISSOURI...

CITY           SKY/WX    TMP DP  RH WIND       PRES   REMARKS
COLUMBIA       SUNNY     65  57  75 CALM      30.15R
JEFFERSON CITY SUNNY     64  56  75 NW7       30.14R
ROLLA          MOSUNNY   64  57  78 N7        30.13R
SEDALIA        SUNNY     65  59  81 W3        30.17R
WHITEMAN AFB   SUNNY     64  57  78 N5        30.15R
OSAGE BEACH    MOSUNNY   67  56  67 CALM      30.15R

$$
MOZ051-052-059>065-241400-
...EAST CENTRAL MISSOURI...

CITY           SKY/WX    TMP DP  RH WIND       PRES   REMARKS
ST LOUIS INTL  MOSUNNY   70  56  61 NW8       30.10R
SPIRIT OF STL  SUNNY     68  57  68 NW7       30.10R
ST CHARLES     SUNNY     68  55  63 NW9       30.09R

$$
MOZ072>076-082>087-097>100-106>115-241400-
...SOUTH CENTRAL AND SOUTHEAST MISSOURI...

CITY           SKY/WX    TMP DP  RH WIND       PRES   REMARKS
CAPE GIRARDEAU SUNNY     70  58  65 NW7       30.08R
FARMINGTON     SUNNY     66  56  70 VRB6      30.12R
POPLAR BLUFF   SUNNY     69  60  73 NW7       30.09R
WEST PLAINS    MOSUNNY   67  56  67 N5        30.16R

$$




USA.gov is the U.S. government's official web portal to all federal, state and local government web resources and services.